This is the latest recevied weather packets stored in our database for station/object N2XP-2. If no packets are shown the sender has not sent any weather packets the latest 10 day(s).
| Time | Temp. | Humidity | Pressure | Rain* | Wind** | Luminosity | Snow |
|---|---|---|---|---|---|---|---|
| 1777706706 | 11.11° C | 86% | 1011.8 hPa | 0 mm | 0 m/s | - | - |
| 1777706606 | 11.11° C | 86% | 1011.8 hPa | 0 mm | 0 m/s | - | - |
| 1777706303 | 11.11° C | 86% | 1011.6 hPa | 0 mm | 0.45 m/s, 259° | - | - |
| 1777706004 | 11.11° C | 86% | 1011.7 hPa | 0 mm | 0.45 m/s, 195° | - | - |
| 1777705705 | 11.11° C | 86% | 1011.6 hPa | 0 mm | 0 m/s | - | - |
| 1777705402 | 11.67° C | 86% | 1011.5 hPa | 0 mm | 0 m/s | - | - |
| 1777705103 | 11.67° C | 86% | 1011.5 hPa | 0 mm | 0 m/s | - | - |
| 1777705099 | 11.67° C | 85% | 1011.5 hPa | 0 mm | 0 m/s | - | - |
| 1777704804 | 11.67° C | 86% | 1011.4 hPa | 0 mm | 0 m/s | - | - |
| 1777704548 | 11.67° C | 86% | 1011.4 hPa | 0 mm | 0 m/s | - | - |
| 1777704501 | 11.67° C | 86% | 1011.4 hPa | 0 mm | 0 m/s | - | - |
| 1777704203 | 11.67° C | 85% | 1011.5 hPa | 0 mm | 0 m/s | - | - |
| 1777703904 | 11.67° C | 85% | 1011.5 hPa | 0 mm | 0.45 m/s, 233° | - | - |
| 1777703600 | 11.67° C | 85% | 1011.5 hPa | 0 mm | 0 m/s | - | - |
| 1777703301 | 11.67° C | 85% | 1011.5 hPa | 0 mm | 0.45 m/s, 226° | - | - |
| 1777703179 | 11.67° C | 85% | 1012.1 hPa | 0 mm | 1.79 m/s, 266° | - | - |
| 1777703168 | 11.67° C | 85% | 1012.1 hPa | 0 mm | 1.34 m/s, 211° | - | - |
| 1777702999 | 11.67° C | 85% | 1011.7 hPa | 0 mm | 1.79 m/s, 173° | - | - |
| 1777702696 | 11.67° C | 85% | 1011.7 hPa | 0 mm | 0.45 m/s, 141° | - | - |
| 1777702397 | 11.67° C | 85% | 1011.8 hPa | 0 mm | 0.89 m/s, 148° | - | - |
| 1777702139 | 11.67° C | 85% | 1012 hPa | 0 mm | 0.89 m/s, 240° | - | - |
| 1777702098 | 11.67° C | 85% | 1012 hPa | 0 mm | 0.89 m/s, 240° | - | - |
| 1777701795 | 11.67° C | 85% | 1012.1 hPa | 0 mm | 1.79 m/s, 266° | - | - |
| 1777701496 | 11.67° C | 85% | 1012.1 hPa | 0 mm | 1.34 m/s, 211° | - | - |
| 1777701251 | 11.67° C | 84% | 1012.2 hPa | 0 mm | 1.79 m/s, 191° | - | - |
* Rain latest hour (hover to see other rain measurements)
** Current wind speed in m/s (hover to see current wind gust speed)